Flag for Norway Weather past 2 weeks in Honningsvåg, Norway

46 °F

Rain. Passing clouds.

Feels Like: 42 °F
Forecast: 46 / 48 °F
Wind: 8 mph from West

Location: Honningsvag / Valan

Current Time: Oct 14, 2015 at 1:38:35 AM

Latest Report: Oct 13, 2015 at 10:50 PM

Visibility: 3 mi

Pressure: 29.92 "Hg

Humidity: 82%

Dew point: 41 °F

Location of HonningsvågLocation

Historic Weather in Honningsvåg — Graph


Honningsvåg temperature yesterday

Maximum temperature yesterday: 46 °F (at 8:50 AM)
Minimum temperature yesterday: 43 °F (at 5:20 AM)
Average temperature yesterday: 46 °F

Past Weeks' High & Low Weather Summary

High54 °F (Sep 29, 8:20 PM)93% (Oct 13, 6:50 AM)30.54 "Hg (Oct 13, 6:50 AM)
Low36 °F (Oct 1, 11:50 AM)49% (Oct 6, 2:50 PM)29.18 "Hg (Oct 2, 10:50 AM)
Average41 °F72%30.02 "Hg
* Reported Sep 28 10:50 PM — Oct 13 10:50 PM, Honningsvåg, Weather by CustomWeather, © 2015

Note: Actual official high and low records may vary slightly from our data, if they occured in-between our weather recording intervals... More about our weather records


Honningsvåg weather history for previous 24 hours

Time TempWeatherWind HumidityBarometerVisibility
10:50 PM
Tue, Oct 13
46 °FRain. Passing clouds.8 mph82%29.92 "Hg3 mi
9:50 PM46 °FRain. Passing clouds.20 mph87%29.92 "Hg4 mi
9:20 PM46 °FPassing clouds.20 mph87%29.92 "HgN/A
8:50 PM46 °FRain. Passing clouds.24 mph82%29.92 "Hg4 mi
7:50 PM46 °FRain. Passing clouds.21 mph82%29.92 "HgN/A
6:50 PM46 °FRain. Partly cloudy.16 mph82%29.92 "HgN/A
6:20 PM46 °FRain. Partly cloudy.21 mph82%29.92 "HgN/A
5:50 PM46 °FRain. Partly cloudy.10 mph82%29.92 "HgN/A
4:50 PM46 °FRain. Partly sunny.13 mph82%29.92 "HgN/A
3:50 PM46 °FRain. Broken clouds.6 mph82%29.92 "HgN/A
2:50 PM46 °FLight rain. Broken clouds.13 mph82%29.92 "HgN/A
11:50 AM46 °FLight rain. Broken clouds.20 mph82%29.92 "HgN/A
11:20 AM46 °FDrizzle. Broken clouds.14 mph82%29.92 "HgN/A
9:50 AM46 °FDrizzle. Broken clouds.14 mph82%29.95 "HgN/A
8:50 AM46 °FLight rain. Broken clouds.15 mph82%29.95 "HgN/A
7:50 AM43 °FLight rain. Passing clouds.5 mph93%29.95 "HgN/A
6:50 AM43 °FLight rain. Partly cloudy.8 mph93%29.95 "HgN/A
5:50 AM43 °FLight rain. Partly cloudy.5 mph87%29.98 "HgN/A
5:20 AM43 °FLight rain. Fog.3 mph87%29.98 "HgN/A
Weather by CustomWeather, © 2015

See weather overviewHow to use our weather pages